Regional Weather Roundup
Issued by NWS

Home | Current Version | Previous Version | Text Only | Print | Product List | Glossary Off
Versions: 1 2 3 4 5 6 7 8 9 10 11 12 13 14 15 16 17 18 19 20 21 22 23 24 25 26 27 28 29 30 31 32 33 34 35 36 37 38 39 40 41 42 43 44 45 46 47 48 49 50

000
ASUS43 KFSD 271402
RWRSD

WEATHER ROUNDUP FOR SOUTH DAKOTA
NATIONAL WEATHER SERVICE SIOUX FALLS SD
800 AM CST MON FEB 27 2017

NOTE: "FAIR" INDICATES FEW OR NO CLOUDS BELOW 12,000 FEET WITH NO
SIGNIFICANT WEATHER AND/OR OBSTRUCTIONS TO VISIBILITY.


SDZ001>005-009-010-012>017-271500-
NORTHWEST AND NORTH CENTRAL SOUTH DAKOTA

CITY           SKY/WX    TMP DP  RH WIND       PRES   REMARKS
BUFFALO          N/A     22  19  89 SE6       29.58R WCI  14
FAITH            N/A     21  21 100 E6        29.66F WCI  13
MOBRIDGE       PTCLDY    23  18  81 E9        29.73F WCI  13
$$

SDZ012>016-024>037-041>051-057-063-072>074-271500-
SOUTHWEST AND SOUTH CENTRAL SOUTH DAKOTA

CITY           SKY/WX    TMP DP  RH WIND       PRES   REMARKS
RAPID CTY ARPT CLEAR     16   9  74 NE3       29.63S
PIERRE         CLOUDY    22  16  78 SE8       29.75F WCI  12
CUSTER         CLOUDY    18   4  54 SW7       29.56S WCI   9
ELLSWORTH AFB  CLEAR     17  11  75 CALM      29.61S
PHILIP         CLOUDY    22  14  71 S14       29.69F WCI   9
PINE RIDGE     CLOUDY    22  12  65 S13       29.68S WCI  10
SPEARFISH      FAIR      21   7  53 CALM      29.58F
WINNER         FAIR      30  12  47 S21       29.75F WCI  17
$$

SDZ004>011-016>023-039-040-271500-
NORTHEAST SOUTH DAKOTA

CITY           SKY/WX    TMP DP  RH WIND       PRES   REMARKS
ABERDEEN       CLOUDY    21  18  88 E7        29.83F WCI  12
WATERTOWN      CLOUDY    22  18  85 SE7       29.83S WCI  13
BROOKINGS      CLOUDY    22  17  81 S8        29.87R WCI  12
SISSETON         N/A     20  18  92 CALM      29.87F
$$

SDZ017-020-022-023-036>040-048>070-271500-
SOUTHEAST SOUTH DAKOTA

CITY           SKY/WX    TMP DP  RH WIND       PRES   REMARKS
SIOUX FALLS    PTCLDY    24  20  84 S5        29.90R WCI  18
HURON          CLOUDY    21  17  84 SE7       29.85S WCI  12
CHAMBERLAIN    CLEAR     23  17  75 CALM      29.81S
MITCHELL       CLOUDY    22  17  81 SE6       29.87F WCI  14
YANKTON        CLEAR     18  14  86 SE3       29.91R
$$

ABBREVIATIONS USED IN REMARKS
   TC - TEMPERATURE IN CELSIUS
  WCI - WIND CHILL INDEX
   HX - HEAT INDEX
  VSB - VISIBILITY





USA.gov is the U.S. government's official web portal to all federal, state and local government web resources and services.